Weather History for Erwin, NC

Change the Weather History Date:

Tuesday, November 15, 2011

  Actual Average Record
Temperature  
Mean Temperature 69 °F -  
Max Temperature 78 °F 63 °F 79 °F (1985)
Min Temperature 60 °F 38 °F 24 °F (1975)
Cooling Degree Days 4    
Growing Degree Days 19 (Base 50)    
Moisture  
Dew Point 59 °F    
Average Humidity 74    
Maximum Humidity 100    
Minimum Humidity 44    
Precipitation  
Precipitation 0.00 in - - ()
Sea Level Pressure  
Sea Level Pressure 30.00 in    
Wind  
Wind Speed 8 mph (SSW)    
Max Wind Speed 17 mph    
Max Gust Speed 22 mph    
Visibility 10 miles    
Events      
Averages and records for this station are not official NWS values.
T = Trace of Precipitation, MM = Missing Value Source: NWS Daily Summary

Daily Weather History Graph

Daily Weather History Graph

Search for Another Location

Airport:

Trip Planner

Search our weather history database for the weather conditions in past years. The results will help you decide how hot, cold, wet, or windy it might be!

Date:

Astronomy

Nov. 15, 2011 Rise Set
Actual Time 6:49 AM EST 5:08 PM EST
Civil Twilight 6:22 AM EST 5:35 PM EST
Nautical Twilight 5:52 AM EST 6:06 PM EST
Astronomical Twilight 5:21 AM EST 6:36 PM EST
Moon 9:16 PM EST (11/15) 10:46 AM EST (11/15)
Length of Visible Light 11h 12m
Length of Day
10h 18m
Waning Gibbous, 79% of the Moon is Illuminated
Nov 15
Waning Gibbous
Nov 18
Last Quarter
Nov 25
New
Dec 2
First Quarter
Dec 10
Full

Hourly Weather History & Observations

Time (EST) Temp. Dew Point Humidity Pressure Visibility Wind Dir Wind Speed Gust Speed Precip Events Conditions
12:15 AM 60.8 °F 53.6 °F 77% 30.03 in 10.0 mi SSW 6.9 mph - N/A   Clear
12:35 AM 62.6 °F 53.6 °F 72% 30.02 in 10.0 mi SSW 9.2 mph - N/A   Clear
12:55 AM 62.6 °F 53.6 °F 72% 30.02 in 10.0 mi SSW 8.1 mph - N/A   Clear
1:15 AM 62.6 °F 53.6 °F 72% 30.03 in 10.0 mi SSW 6.9 mph - N/A   Clear
1:35 AM 62.6 °F 53.6 °F 72% 30.03 in 10.0 mi SW 6.9 mph - N/A   Clear
2:35 AM 62.6 °F 55.4 °F 77% 30.03 in 10.0 mi SSW 6.9 mph - N/A   Mostly Cloudy
2:55 AM 60.8 °F 55.4 °F 82% 30.03 in 10.0 mi SSW 8.1 mph - N/A   Scattered Clouds
3:15 AM 62.6 °F 55.4 °F 77% 30.03 in 10.0 mi SSW 9.2 mph - N/A   Mostly Cloudy
3:35 AM 62.6 °F 55.4 °F 77% 30.02 in 10.0 mi SSW 6.9 mph - N/A   Overcast
3:55 AM 62.6 °F 55.4 °F 77% 30.02 in 10.0 mi SSW 8.1 mph - N/A   Overcast
4:15 AM 62.6 °F 57.2 °F 82% 30.02 in 10.0 mi SSW 6.9 mph - N/A   Overcast
4:35 AM 62.6 °F 57.2 °F 82% 30.02 in 10.0 mi SSW 9.2 mph - N/A   Overcast
4:55 AM 62.6 °F 59.0 °F 88% 30.02 in 10.0 mi SSW 9.2 mph - N/A   Overcast
5:15 AM 62.6 °F 59.0 °F 88% 30.02 in 10.0 mi SSW 6.9 mph - N/A   Overcast
5:35 AM 62.6 °F 59.0 °F 88% 30.02 in 10.0 mi SSW 6.9 mph - N/A   Mostly Cloudy
5:55 AM 62.6 °F 59.0 °F 88% 30.02 in 10.0 mi SSW 6.9 mph - N/A   Mostly Cloudy
6:15 AM 62.6 °F 59.0 °F 88% 30.02 in 10.0 mi SSW 8.1 mph - N/A   Mostly Cloudy
6:35 AM 64.4 °F 59.0 °F 83% 30.02 in 10.0 mi SSW 8.1 mph - N/A   Mostly Cloudy
8:15 AM 64.4 °F 60.8 °F 88% 30.03 in 10.0 mi SSW 10.4 mph - N/A   Clear
8:35 AM 66.2 °F 60.8 °F 83% 30.03 in 10.0 mi SSW 8.1 mph - N/A   Clear
8:55 AM 68.0 °F 59.0 °F 73% 30.03 in 10.0 mi South 9.2 mph - N/A   Clear
9:15 AM 68.0 °F 59.0 °F 73% 30.04 in 10.0 mi SSW 10.4 mph - N/A   Clear
9:35 AM 69.8 °F 59.0 °F 68% 30.03 in 10.0 mi SSW 10.4 mph 16.1 mph N/A   Clear
10:15 AM 71.6 °F 59.0 °F 64% 30.03 in 10.0 mi SSW 11.5 mph 21.9 mph N/A   Scattered Clouds
10:35 AM 73.4 °F 59.0 °F 61% 30.03 in 10.0 mi SSW 12.7 mph 17.3 mph N/A   Scattered Clouds
10:55 AM 73.4 °F 57.2 °F 57% 30.02 in 10.0 mi SW 9.2 mph 17.3 mph N/A   Clear
11:15 AM 73.4 °F 57.2 °F 57% 30.02 in 10.0 mi SSW 12.7 mph 19.6 mph N/A   Clear
11:35 AM 75.2 °F 57.2 °F 53% 30.01 in 10.0 mi SSW 13.8 mph 17.3 mph N/A   Clear
11:55 AM 77.0 °F 55.4 °F 47% 30.00 in 10.0 mi SSW 17.3 mph 20.7 mph N/A   Clear
12:55 PM 77.0 °F 55.4 °F 47% 29.98 in 10.0 mi SSW 10.4 mph 20.7 mph N/A   Clear
1:15 PM 77.0 °F 55.4 °F 47% 29.97 in 10.0 mi SSW 15.0 mph 21.9 mph N/A   Clear
1:35 PM 77.0 °F 55.4 °F 47% 29.96 in 10.0 mi SW 8.1 mph 18.4 mph N/A   Clear
2:15 PM 78.8 °F 59.0 °F 51% 29.95 in 10.0 mi SSW 10.4 mph - N/A   Clear
2:35 PM 78.8 °F 55.4 °F 44% 29.95 in 10.0 mi SSW 11.5 mph 18.4 mph N/A   Clear
2:55 PM 78.8 °F 59.0 °F 51% 29.95 in 10.0 mi SSW 9.2 mph - N/A   Clear
3:15 PM 78.8 °F 59.0 °F 51% 29.95 in 10.0 mi SW 11.5 mph - N/A   Clear
3:35 PM 77.0 °F 59.0 °F 54% 29.96 in 10.0 mi SSW 11.5 mph 16.1 mph N/A   Clear
3:55 PM 77.0 °F 59.0 °F 54% 29.95 in 10.0 mi SSW 12.7 mph - N/A   Clear
4:15 PM 77.0 °F 59.0 °F 54% 29.95 in 10.0 mi SSW 10.4 mph - N/A   Clear
4:35 PM 75.2 °F 59.0 °F 57% 29.96 in 10.0 mi SSW 8.1 mph - N/A   Clear
4:55 PM 73.4 °F 59.0 °F 61% 29.97 in 10.0 mi South 6.9 mph - N/A   Clear
5:15 PM 71.6 °F 59.0 °F 64% 29.97 in 10.0 mi South 5.8 mph - N/A   Clear
5:35 PM 71.6 °F 59.0 °F 64% 29.97 in 10.0 mi South 9.2 mph - N/A   Clear
5:55 PM 69.8 °F 60.8 °F 73% 29.98 in 10.0 mi South 6.9 mph - N/A   Clear
6:15 PM 69.8 °F 62.6 °F 78% 29.98 in 10.0 mi South 8.1 mph - N/A   Clear
6:35 PM 69.8 °F 62.6 °F 78% 29.99 in 10.0 mi South 6.9 mph - N/A   Clear
6:55 PM 68.0 °F 62.6 °F 83% 29.99 in 10.0 mi South 8.1 mph - N/A   Clear
7:15 PM 68.0 °F 62.6 °F 83% 29.99 in 10.0 mi South 8.1 mph - N/A   Clear
7:35 PM 68.0 °F 62.6 °F 83% 29.99 in 10.0 mi South 5.8 mph - N/A   Clear
8:15 PM 68.0 °F 62.6 °F 83% 30.00 in 10.0 mi South 5.8 mph - N/A   Clear
8:35 PM 66.2 °F 62.6 °F 88% 30.00 in 10.0 mi South 3.5 mph - N/A   Clear
8:55 PM 64.4 °F 62.6 °F 94% 30.00 in 10.0 mi SSE 6.9 mph - N/A   Clear
9:15 PM 64.4 °F 64.4 °F 100% 30.00 in 10.0 mi South 4.6 mph - N/A   Clear
9:35 PM 64.4 °F 64.4 °F 100% 30.00 in 10.0 mi South 4.6 mph - N/A   Clear
9:55 PM 64.4 °F 62.6 °F 94% 30.00 in 10.0 mi South 4.6 mph - N/A   Clear
10:15 PM 64.4 °F 62.6 °F 94% 29.99 in 10.0 mi South 3.5 mph - N/A   Clear
10:35 PM 64.4 °F 64.4 °F 100% 29.98 in 10.0 mi Calm Calm - N/A   Clear
10:55 PM 64.4 °F 64.4 °F 100% 29.98 in 10.0 mi Calm Calm - N/A   Clear
11:15 PM 64.4 °F 64.4 °F 100% 29.98 in 7.0 mi South 3.5 mph - N/A   Clear
11:35 PM 62.6 °F 62.6 °F 100% 29.97 in 7.0 mi South 3.5 mph - N/A   Clear
11:55 PM 62.6 °F 62.6 °F 100% 29.97 in 5.0 mi South 3.5 mph - N/A   Clear